Location: Saint Peter Port
(49.4500°N, 2.5330°W)
Time: 20:19:29
(UTC+01:00)

Cosmos 2242 Rocket - Visible Passes

Search period start: 21 April 2018 00:00
Search period end: 01 May 2018 00:00
Orbit: 618 x 652 km, 82.5° (Epoch: 21 April)

Date Brightness Start Highest point End Pass type
(mag) Time Alt. Az. Time Alt. Az. Time Alt. Az.
21 Apr 4.2 22:42:18 39° E 22:42:18 39° E 22:46:18 10° NNE visible
22 Apr 5.4 00:19:45 23° W 00:20:32 24° WNW 00:24:11 10° NNW visible
22 Apr 3.4 23:04:10 72° SE 23:04:31 77° E 23:08:56 10° NNE visible
23 Apr 6.1 00:41:37 12° W 00:43:20 14° WNW 00:45:39 10° NNW visible
23 Apr 5.2 21:48:32 17° E 21:49:12 18° E 21:52:07 10° NE visible
23 Apr 4.1 23:25:59 44° WSW 23:26:59 54° WNW 23:31:19 10° N visible
24 Apr 4.4 22:10:20 29° ESE 22:11:21 33° E 22:15:18 10° NNE visible
24 Apr 5.3 23:47:47 22° WSW 23:49:34 29° WNW 23:53:26 10° N visible
25 Apr 3.5 22:32:05 38° SSE 22:33:38 64° E 22:38:02 10° NNE visible
26 Apr 6.1 00:09:33 10° WSW 00:12:19 16° WNW 00:15:07 10° NNW visible
26 Apr 5.4 21:16:21 11° ESE 21:18:24 15° E 21:20:53 10° NE visible
26 Apr 3.9 22:53:48 27° SSW 22:56:03 65° WNW 23:00:28 10° N visible
27 Apr 4.6 21:38:00 16° SE 21:40:31 28° E 21:44:17 10° NNE visible
27 Apr 5.1 23:15:26 15° SW 23:18:37 34° WNW 23:22:40 10° N visible
28 Apr 3.7 21:59:35 17° SSE 22:02:46 53° E 22:07:06 10° NNE visible
28 Apr 6.0 23:38:11 10° WSW 23:41:20 19° WNW 23:44:31 10° NNW visible
29 Apr 3.7 22:21:05 12° SSW 22:25:09 78° W 22:29:37 10° N visible
30 Apr 6.6 00:03:16 10° WNW 00:04:12 11° WNW 00:05:09 10° NW visible
30 Apr 4.8 21:06:13 10° SE 21:09:42 23° E 21:13:13 10° NE visible
30 Apr 4.8 22:43:32 10° SW 22:47:41 40° WNW 22:51:53 10° N visible
